User: anonymous   Login
Location: Phoenix
(33.4480°N, 112.0730°W)
Time: 18:50:04
(UTC-07:00)
Language:

Hubble Space Telescope - Orbit

View from above orbital plane
View from above orbital plane
View from above satellite
View from above satellite

Ground track
Ground track

The orbit data is extracted from the following two-line orbital elements,

1 20580U 90037B   15181.09603115  .00000835  00000-0  42220-4 0  9995
2 20580 028.4704 068.9989 0003004 019.4976 126.6257 15.07503991181766
Epoch (UTC): 30 June 2015 02:18:17
Eccentricity: 0.0003004
inclination: 28.4704°
perigee height: 542 km
apogee height: 546 km
right ascension of ascending node: 68.9989°
argument of perigee: 19.4976°
revolutions per day: 15.07503991
mean anomaly at epoch: 126.6257°
orbit number at epoch: 18176

The dashed part of the orbit path shows where the satellite is in the earth's shadow,  

DLR